Starlink 31496

operational
NORAD ID: 59211 Int'l Des: 2024-046 Owner: SPXS Country: US Constellation: starlink
LEOCIRCULAR

关于 Starlink 31496

正在加载描述...

实时位置

正在加载3D地球...

即将过境

高度历史

Altitude vs Time

uPlot chart will show altitude changes over time

两行轨道根数

1 59211U 24046L 25350.77600484 .00002304 00000-0 89889-4 0 9990
2 59211 53.1596 167.7912 0001948 73.2266 286.8948 15.30207035100529
Epoch: Dec 16, 2025 • Age: 21 hours

当前状态

高度 492.0 km
速度 7.62 km/s
星下点 -45.60°S, 65.76°E
发射日期 Mar 11, 2024
运行时间 1.7 years
类型 internet

技术详情

分类 Payload
质量 730.00 kg
干质量 700.00 kg
总质量 730.00 kg
长度 0.30 m
直径 4.10 m
跨度 29.00 m
形状 Box + pan
制造商 SPXS
平台类型 Starlink V2M
阶段状态 In Orbit
所有者/国家 SPXS/US

大型星座

Loading constellations...